Regional Weather Roundup
Issued by NWS

Home | Current Version | Previous Version | Graphics & Text | Print | Product List | Glossary On
Versions: 1 2 3 4 5 6 7 8 9 10 11 12 13 14 15 16 17 18 19 20 21 22 23 24 25 26 27 28 29 30 31 32 33 34 35 36 37 38 39 40 41 42 43 44 45 46 47 48 49 50
000
ASUS43 KLOT 301912
RWRIL

ILLINOIS REGIONAL WEATHER ROUNDUP
NATIONAL WEATHER SERVICE CHICAGO/ROMEOVILLE IL
200 PM CDT SUN AUG 30 2015

NOTE: "FAIR" INDICATES FEW OR NO CLOUDS BELOW 12,000 FEET WITH NO
SIGNIFICANT WEATHER AND/OR OBSTRUCTIONS TO VISIBILITY.

* THESE STATIONS ARE NOT UNDER NWS QUALITY CONTROL. THEY ALSO MAY NOT
  REPORT WEATHER SUCH AS PRECIPITATION OR FOG.

ILZ001-002-007-009-015-016-024-302000-
NORTHWEST ILLINOIS

CITY           SKY/WX    TMP DP  RH WIND       PRES   REMARKS
MOLINE         MOSUNNY   79  64  60 NE3       30.05F HX  81
STERLING*        N/A    N/A N/A N/A MISG        N/A
SAVANNA*       PTSUNNY   75  62  63 W5        30.06F
$$

ILZ003-004-008-010-011-017-018-302000-
NORTH CENTRAL ILLINOIS

CITY           SKY/WX    TMP DP  RH WIND       PRES   REMARKS
ROCKFORD       CLOUDY    74  61  63 VRB5      30.08F
FREEPORT*      MOSUNNY   71  62  72 SE3       30.09F
ROCHELLE*      MOSUNNY   72  62  70 CALM      30.08F
DE KALB*       PTSUNNY   73  63  69 CALM      30.09S
PERU*          PTSUNNY   75  65  70 S5        30.08F
$$

ILZ005-006-012>014-019>023-302000-
NORTHEAST ILLINOIS

CITY           SKY/WX    TMP DP  RH WIND       PRES   REMARKS
CHICAGO-OHARE  PTSUNNY   73  63  70 N5        30.06F
CHICAGO-MIDWAY PTSUNNY   76  62  62 NW6       30.06F
AURORA         CLOUDY    75  65  70 N7        30.08S
LANSING*       CLOUDY    76  65  69 CALM      30.07F
JOLIET*        CLOUDY    76  66  70 SW3       30.07F
WAUKEGAN       CLOUDY    68  63  84 E7        30.07S
DUPAGE AIRPORT CLOUDY    74  61  63 W8        30.07F
KANKAKEE*      CLOUDY    78  70  76 CALM      30.07S HX  80
WHEELING       CLOUDY    73  62  68 CALM      30.08F
MORRIS*        CLOUDY    76  66  72 S5        30.06S
ROMEOVILLE*    CLOUDY    75  64  68 W3        30.07F
NORTHERLY ISL    N/A     68  63  84 N10         N/A
$$

LMZ740>746-302000-
SOUTHERN LAKE MICHIGAN

STATION/POSITION SKY/WX   TEMP    WIND        PRES    VSBY  WAVE
                          AIR SEA DIR/SP/G                  HT/PER
                          (F)     (DEG/KT/KT) (MB)    (MI)  (FT/S)
SOUTHERN BUOY              66 69  320/  8/  8 1018.0R
WILMETTE HARBOR            62 60  190/  4/  6   N/A           1/ 3
HARRISON CRIB              63     350/  9/ 10   N/A
BURNHAM HARBOR             68      10/  8/  9   N/A
BURNS HARBOR               68     320/  4/  6 1019.0F
MICHIGAN CITY              70     250/  6/  6   N/A
MICHIGAN CITY 6N           69 71  320/  8/  8   N/A           1/ 3
ST. JOSEPH                 69 71  320/ 10/ 12   N/A           1/ 2
$$

ILZ025>027-034>036-040-047-049-050-058-095>099-302000-
WEST-CENTRAL ILLINOIS

CITY           SKY/WX    TMP DP  RH WIND       PRES   REMARKS
QUINCY         MOSUNNY   84  68  58 NE5       30.04F HX  87
GALESBURG*     PTSUNNY   79  67  65 CALM      30.06S HX  81
MACOMB*        SUNNY     78  69  73 CALM      30.07F HX  80
JACKSONVILLE*  MOSUNNY   84  71  65 CALM      30.03F HX  89
PITTSFIELD*    MOSUNNY   84  69  60 N3        30.04F HX  88
$$

ILZ028>032-037-038-041>044-048-051>054-059>061-302000-
CENTRAL ILLINOIS

CITY           SKY/WX    TMP DP  RH WIND       PRES   REMARKS
PONTIAC        CLOUDY    78  70  76 W3        30.07F HX  80
BLOOMINGTON    MOSUNNY   82  71  69 VRB6      30.07F HX  86
DECATUR        MOSUNNY   85  64  49 W6        30.04F HX  86
PEORIA         PTSUNNY   82  68  62 VRB5      30.06F HX  85
LACON*         CLOUDY    73  65  77 NE3       30.06F
LINCOLN*       PTSUNNY   84  69  61 E3        30.02F HX  88
SPRINGFIELD    MOSUNNY   85  69  58 S5        30.03F HX  89
TAYLORVILLE    SUNNY     82  66  57 S3        30.04F HX  85
$$

ILZ033-039-045-046-055>057-062-063-302000-
EAST-CENTRAL ILLINOIS

CITY           SKY/WX    TMP DP  RH WIND       PRES   REMARKS
CHAMPAIGN      MOSUNNY   84  69  60 W5        30.05F HX  88
RANTOUL*       PTSUNNY   82  71  68 CALM      30.05F HX  86
MATTOON        MOSUNNY   84  64  50 SW7G17    30.04F HX  85
PARIS*         MOSUNNY   85  65  51 SW7       30.06F HX  86
$$

ILZ079-100>102-302000-
SOUTHWEST ILLINOIS

CITY           SKY/WX    TMP DP  RH WIND       PRES   REMARKS
BELLEVILLE     SUNNY     86  73  63 VRB2      30.02F HX  93
CAHOKIA*       MOSUNNY   87  65  47 VRB3      30.02F HX  89
SPARTA*        MOSUNNY   84  71  65 S6        30.04F HX  89
$$

ILZ064>066-069>071-074>076-080>082-084>086-088>090-092>094-302000-
SOUTH-CENTRAL ILLINOIS

CITY           SKY/WX    TMP DP  RH WIND       PRES   REMARKS
CARBONDALE     MOSUNNY   83  70  64 SW10      30.05F HX  87
CAIRO*         PTSUNNY   82  77  86 S6        30.06F HX  90
EFFINGHAM*     MOSUNNY   84  62  47 S5        30.06F HX  85
MARION         PTSUNNY   84  72  65 S6        30.06F HX  89
MT. VERNON     PTSUNNY   84  68  58 SW9       30.06F HX  87
SALEM*         MOSUNNY   86  67  54 SW7       30.05F HX  88
METROPOLIS*    PTSUNNY   83  75  78 SE3       30.07F HX  90
$$

ILZ067-068-072-073-078-083-087-091-302000-
SOUTHEAST ILLINOIS

CITY           SKY/WX    TMP DP  RH WIND       PRES   REMARKS
LAWRENCEVILLE  PTSUNNY   86  66  51 S8        30.06F HX  88
FLORA*         MOSUNNY   85  64  50 CALM      30.05F HX  86
FAIRFIELD*     MOSUNNY   84  68  57 S3        30.04F HX  87
HARRISBURG*    MOSUNNY   84  69  62 SE6       30.06F HX  87
ROBINSON*      SUNNY     86  65  49 S9        30.06F HX  88
CARMI*         FAIR      84  72  66 S6        30.05F HX  90
$$

ABBREVIATIONS USED IN REMARKS
   TC - TEMPERATURE IN CELSIUS
  WCI - WIND CHILL INDEX
   HX - HEAT INDEX
  VSB - VISIBILITY
$$




USA.gov is the U.S. government's official web portal to all federal, state and local government web resources and services.